Tracking 20241 objects as of 25-Jan-2020
HD Live streaming from Space Station
objects crossing your sky now

JCSAT 18

Track JCSAT 18 now!


NORAD ID: 44868
Int'l Code: 2019-091A
Perigee: 35,786.9 km
Apogee: 35,801.8 km
Inclination: 0.0 °
Period: 1,436.1 minutes
Semi major axis: 42165 km
RCS: Unknown
Launch date: December 17, 2019
Source: Japan (JPN)
Launch site: AIR FORCE EASTERN TEST RANGE (AFETR)
aabbcc
Your satellite tracking list
Your tracking list is empty




NASA's NSSDC Master Catalog

Two Line Element Set (TLE):
1 44868U 19091A   20024.58111192 -.00000210  00000-0  00000+0 0  9999
2 44868   0.0085 290.5426 0001760  34.5694 157.4453  1.00269568   677
Source of the keplerian elements: AFSPC